Location: Rockford
(42.2710°N, 89.0940°W)
Time: 23:36:02
(UTC-06:00)

SPOT 5 - Visible Passes

Search period start: 20 February 2018 00:00
Search period end: 02 March 2018 00:00
Orbit: 624 x 814 km, 98.4° (Epoch: 20 February)

Date Brightness Start Highest point End Pass type
(mag) Time Alt. Az. Time Alt. Az. Time Alt. Az.
23 Feb 5.7 20:43:57 10° N 20:43:57 10° N 20:44:01 10° N visible
25 Feb 5.6 20:41:37 12° N 20:41:37 12° N 20:41:58 10° N visible
26 Feb 5.8 21:30:04 11° NNW 21:30:04 11° NNW 21:30:19 10° NNW visible
27 Feb 5.5 20:39:18 13° N 20:39:18 13° N 20:39:54 10° N visible
28 Feb 5.7 21:27:45 13° NNW 21:27:45 13° NNW 21:28:18 10° NNW visible
01 Mar 5.4 20:36:58 14° N 20:36:58 14° N 20:37:50 10° N visible
